Year,Month,Day,Hour,Minute,Value (Times are PST for temperature in C)
2015,10,06,00,00,11.90
2015,10,06,00,01,11.90
2015,10,06,00,02,11.90
2015,10,06,00,03,11.80
2015,10,06,00,04,11.80
2015,10,06,00,05,11.80
2015,10,06,00,06,11.80
2015,10,06,00,07,11.80
2015,10,06,00,08,11.80
2015,10,06,00,09,11.80
2015,10,06,00,10,11.80
2015,10,06,00,11,11.80
2015,10,06,00,12,11.80
2015,10,06,00,13,11.80
2015,10,06,00,14,11.80
2015,10,06,00,15,11.80
2015,10,06,00,16,11.80
2015,10,06,00,17,11.70
2015,10,06,00,18,11.70
2015,10,06,00,19,11.70
2015,10,06,00,20,11.60
2015,10,06,00,21,11.60
2015,10,06,00,22,11.60
2015,10,06,00,23,11.60
2015,10,06,00,24,11.60
2015,10,06,00,25,11.60
2015,10,06,00,26,11.60
2015,10,06,00,27,11.60
2015,10,06,00,28,11.60
2015,10,06,00,29,11.60
2015,10,06,00,30,11.60
2015,10,06,00,31,11.60
2015,10,06,00,32,11.60
2015,10,06,00,33,11.60
2015,10,06,00,34,11.60
2015,10,06,00,35,11.60
2015,10,06,00,36,11.70
2015,10,06,00,37,11.70
2015,10,06,00,38,11.70
2015,10,06,00,39,11.70
2015,10,06,00,40,11.70
2015,10,06,00,41,11.70
2015,10,06,00,42,11.70
2015,10,06,00,43,11.70
2015,10,06,00,44,11.70
2015,10,06,00,45,11.80
2015,10,06,00,46,11.80
2015,10,06,00,47,11.80
2015,10,06,00,48,11.80
2015,10,06,00,49,11.80
2015,10,06,00,50,11.80
2015,10,06,00,51,11.80
2015,10,06,00,52,11.80
2015,10,06,00,53,11.80
2015,10,06,00,54,11.80
2015,10,06,00,55,11.80
2015,10,06,00,56,11.90
2015,10,06,00,57,11.90
2015,10,06,00,58,11.90
2015,10,06,00,59,11.90
2015,10,06,01,00,11.90
2015,10,06,01,01,11.90
2015,10,06,01,02,11.90
2015,10,06,01,03,12.00
2015,10,06,01,04,12.00
2015,10,06,01,05,12.00
2015,10,06,01,06,12.00
2015,10,06,01,07,12.10
2015,10,06,01,08,12.10
2015,10,06,01,09,12.10
2015,10,06,01,10,12.10
2015,10,06,01,11,12.10
2015,10,06,01,12,12.10
2015,10,06,01,13,12.10
2015,10,06,01,14,12.10
2015,10,06,01,15,12.10
2015,10,06,01,16,12.10
2015,10,06,01,17,12.10
2015,10,06,01,18,12.00
2015,10,06,01,19,12.00
2015,10,06,01,20,12.00
2015,10,06,01,21,12.00
2015,10,06,01,22,11.90
2015,10,06,01,23,11.90
2015,10,06,01,24,11.90
2015,10,06,01,25,11.90
2015,10,06,01,26,11.90
2015,10,06,01,27,11.90
2015,10,06,01,28,11.90
2015,10,06,01,29,11.90
2015,10,06,01,30,11.90
2015,10,06,01,31,11.90
2015,10,06,01,32,11.90
2015,10,06,01,33,11.90
2015,10,06,01,34,11.90
2015,10,06,01,35,11.90
2015,10,06,01,36,11.90
2015,10,06,01,37,11.90
2015,10,06,01,38,11.90
2015,10,06,01,39,11.90
2015,10,06,01,40,11.90
2015,10,06,01,41,11.90
2015,10,06,01,42,11.90
2015,10,06,01,43,11.90
2015,10,06,01,44,11.90
2015,10,06,01,45,11.90
2015,10,06,01,46,11.90
2015,10,06,01,47,11.90
2015,10,06,01,48,11.90
2015,10,06,01,49,11.90
2015,10,06,01,50,11.90
2015,10,06,01,51,11.90
2015,10,06,01,52,11.90
2015,10,06,01,53,11.90
2015,10,06,01,54,11.90
2015,10,06,01,55,11.90
2015,10,06,01,56,11.90
2015,10,06,01,57,11.90
2015,10,06,01,58,11.90
2015,10,06,01,59,11.90
2015,10,06,02,00,11.90
2015,10,06,02,01,11.90
2015,10,06,02,02,11.90
2015,10,06,02,03,11.90
2015,10,06,02,04,11.90
2015,10,06,02,05,11.90
2015,10,06,02,06,11.90
2015,10,06,02,07,11.80
2015,10,06,02,08,11.90
2015,10,06,02,09,11.90
2015,10,06,02,10,11.90
2015,10,06,02,11,11.90
2015,10,06,02,12,11.80
2015,10,06,02,13,11.80
2015,10,06,02,14,11.80
2015,10,06,02,15,11.80
2015,10,06,02,16,11.80
2015,10,06,02,17,11.80
2015,10,06,02,18,11.80
2015,10,06,02,19,11.70
2015,10,06,02,20,11.70
2015,10,06,02,21,11.70
2015,10,06,02,22,11.70
2015,10,06,02,23,11.70
2015,10,06,02,24,11.70
2015,10,06,02,25,11.70
2015,10,06,02,26,11.70
2015,10,06,02,27,11.70
2015,10,06,02,28,11.70
2015,10,06,02,29,11.60
2015,10,06,02,30,11.60
2015,10,06,02,31,11.60
2015,10,06,02,32,11.60
2015,10,06,02,33,11.60
2015,10,06,02,34,11.50
2015,10,06,02,35,11.50
2015,10,06,02,36,11.40
2015,10,06,02,37,11.40
2015,10,06,02,38,11.40
2015,10,06,02,39,11.40
2015,10,06,02,40,11.40
2015,10,06,02,41,11.30
2015,10,06,02,42,11.30
2015,10,06,02,43,11.30
2015,10,06,02,44,11.30
2015,10,06,02,45,11.30
2015,10,06,02,46,11.30
2015,10,06,02,47,11.30
2015,10,06,02,48,11.30
2015,10,06,02,49,11.30
2015,10,06,02,50,11.30
2015,10,06,02,51,11.30
2015,10,06,02,52,11.30
2015,10,06,02,53,11.30
2015,10,06,02,54,11.30
2015,10,06,02,55,11.30
2015,10,06,02,56,11.30
2015,10,06,02,57,11.30
2015,10,06,02,58,11.30
2015,10,06,02,59,11.20
2015,10,06,03,00,11.20
2015,10,06,03,01,11.20
2015,10,06,03,02,11.20
2015,10,06,03,03,11.20
2015,10,06,03,04,11.20
2015,10,06,03,05,11.20
2015,10,06,03,06,11.20
2015,10,06,03,07,11.20
2015,10,06,03,08,11.20
2015,10,06,03,09,11.20
2015,10,06,03,10,11.20
2015,10,06,03,11,11.20
2015,10,06,03,12,11.20
2015,10,06,03,13,11.10
2015,10,06,03,14,11.20
2015,10,06,03,15,11.10
2015,10,06,03,16,11.20
2015,10,06,03,17,11.10
2015,10,06,03,18,11.20
2015,10,06,03,19,11.20
2015,10,06,03,20,11.20
2015,10,06,03,21,11.20
2015,10,06,03,22,11.20
2015,10,06,03,23,11.20
2015,10,06,03,24,11.20
2015,10,06,03,25,11.20
2015,10,06,03,26,11.20
2015,10,06,03,27,11.20
2015,10,06,03,28,11.20
2015,10,06,03,29,11.20
2015,10,06,03,30,11.20
2015,10,06,03,31,11.20
2015,10,06,03,32,11.20
2015,10,06,03,33,11.20
2015,10,06,03,34,11.20
2015,10,06,03,35,11.20
2015,10,06,03,36,11.20
2015,10,06,03,37,11.20
2015,10,06,03,38,11.20
2015,10,06,03,39,11.20
2015,10,06,03,40,11.20
2015,10,06,03,41,11.20
2015,10,06,03,42,11.20
2015,10,06,03,43,11.20
2015,10,06,03,44,11.20
2015,10,06,03,45,11.20
2015,10,06,03,46,11.20
2015,10,06,03,47,11.20
2015,10,06,03,48,11.20
2015,10,06,03,49,11.20
2015,10,06,03,50,11.20
2015,10,06,03,51,11.20
2015,10,06,03,52,11.20
2015,10,06,03,53,11.20
2015,10,06,03,54,11.20
2015,10,06,03,55,11.20
2015,10,06,03,56,11.20
2015,10,06,03,57,11.20
2015,10,06,03,58,11.20
2015,10,06,03,59,11.20
2015,10,06,04,00,11.20
2015,10,06,04,01,11.20
2015,10,06,04,02,11.20
2015,10,06,04,03,11.20
2015,10,06,04,04,11.20
2015,10,06,04,05,11.20
2015,10,06,04,06,11.20
2015,10,06,04,07,11.30
2015,10,06,04,08,11.30
2015,10,06,04,09,11.30
2015,10,06,04,10,11.30
2015,10,06,04,11,11.30
2015,10,06,04,12,11.40
2015,10,06,04,13,11.40
2015,10,06,04,14,11.40
2015,10,06,04,15,11.40
2015,10,06,04,16,11.40
2015,10,06,04,17,11.40
2015,10,06,04,18,11.50
2015,10,06,04,19,11.50
2015,10,06,04,20,11.50
2015,10,06,04,21,11.50
2015,10,06,04,22,11.50
2015,10,06,04,23,11.50
2015,10,06,04,24,11.50
2015,10,06,04,25,11.50
2015,10,06,04,26,11.40
2015,10,06,04,27,11.40
2015,10,06,04,28,11.40
2015,10,06,04,29,11.40
2015,10,06,04,30,11.40
2015,10,06,04,31,11.30
2015,10,06,04,32,11.30
2015,10,06,04,33,11.30
2015,10,06,04,34,11.30
2015,10,06,04,35,11.20
2015,10,06,04,36,11.20
2015,10,06,04,37,11.20
2015,10,06,04,38,11.10
2015,10,06,04,39,11.10
2015,10,06,04,40,11.10
2015,10,06,04,41,11.10
2015,10,06,04,42,11.10
2015,10,06,04,43,11.00
2015,10,06,04,44,11.00
2015,10,06,04,45,11.00
2015,10,06,04,46,11.00
2015,10,06,04,47,11.00
2015,10,06,04,48,10.90
2015,10,06,04,49,10.90
2015,10,06,04,50,10.90
2015,10,06,04,51,10.90
2015,10,06,04,52,10.90
2015,10,06,04,53,10.90
2015,10,06,04,54,10.90
2015,10,06,04,55,10.80
2015,10,06,04,56,10.80
2015,10,06,04,57,10.80
2015,10,06,04,58,10.80
2015,10,06,04,59,10.80
2015,10,06,05,00,10.90
2015,10,06,05,01,10.90
2015,10,06,05,02,10.90
2015,10,06,05,03,10.90
2015,10,06,05,04,10.90
2015,10,06,05,05,10.90
2015,10,06,05,06,10.90
2015,10,06,05,07,10.90
2015,10,06,05,08,10.90
2015,10,06,05,09,10.90
2015,10,06,05,10,10.90
2015,10,06,05,11,10.90
2015,10,06,05,12,10.90
2015,10,06,05,13,10.90
2015,10,06,05,14,10.90
2015,10,06,05,15,10.80
2015,10,06,05,16,10.90
2015,10,06,05,17,10.90
2015,10,06,05,18,10.80
2015,10,06,05,19,10.80
2015,10,06,05,20,10.80
2015,10,06,05,21,10.80
2015,10,06,05,22,10.80
2015,10,06,05,23,10.80
2015,10,06,05,24,10.80
2015,10,06,05,25,10.80
2015,10,06,05,26,10.80
2015,10,06,05,27,10.80
2015,10,06,05,28,10.80
2015,10,06,05,29,10.80
2015,10,06,05,30,10.80
2015,10,06,05,31,10.80
2015,10,06,05,32,10.80
2015,10,06,05,33,10.80
2015,10,06,05,34,10.80
2015,10,06,05,35,10.80
2015,10,06,05,36,10.70
2015,10,06,05,37,10.70
2015,10,06,05,38,10.70
2015,10,06,05,39,10.70
2015,10,06,05,40,10.70
2015,10,06,05,41,10.70
2015,10,06,05,42,10.70
2015,10,06,05,43,10.70
2015,10,06,05,44,10.70
2015,10,06,05,45,10.70
2015,10,06,05,46,10.70
2015,10,06,05,47,10.60
2015,10,06,05,48,10.60
2015,10,06,05,49,10.60
2015,10,06,05,50,10.60
2015,10,06,05,51,10.60
2015,10,06,05,52,10.60
2015,10,06,05,53,10.50
2015,10,06,05,54,10.50
2015,10,06,05,55,10.50
2015,10,06,05,56,10.40
2015,10,06,05,57,10.40
2015,10,06,05,58,10.40
2015,10,06,05,59,10.40
2015,10,06,06,00,10.40
2015,10,06,06,01,10.40
2015,10,06,06,02,10.30
2015,10,06,06,03,10.30
2015,10,06,06,04,10.30
2015,10,06,06,05,10.30
2015,10,06,06,06,10.30
2015,10,06,06,07,10.30
2015,10,06,06,08,10.30
2015,10,06,06,09,10.30
2015,10,06,06,10,10.30
2015,10,06,06,11,10.30
2015,10,06,06,12,10.30
2015,10,06,06,13,10.30
2015,10,06,06,14,10.40
2015,10,06,06,15,10.40
2015,10,06,06,16,10.40
2015,10,06,06,17,10.40
2015,10,06,06,18,10.50
2015,10,06,06,19,10.50
2015,10,06,06,20,10.60
2015,10,06,06,21,10.60
2015,10,06,06,22,10.60
2015,10,06,06,23,10.60
2015,10,06,06,24,10.60
2015,10,06,06,25,10.60
2015,10,06,06,26,10.60
2015,10,06,06,27,10.60
2015,10,06,06,28,10.60
2015,10,06,06,29,10.60
2015,10,06,06,30,10.60
2015,10,06,06,31,10.60
2015,10,06,06,32,10.60
2015,10,06,06,33,10.60
2015,10,06,06,34,10.60
2015,10,06,06,35,10.60
2015,10,06,06,36,10.60
2015,10,06,06,37,10.60
2015,10,06,06,38,10.60
2015,10,06,06,39,10.60
2015,10,06,06,40,10.60
2015,10,06,06,41,10.60
2015,10,06,06,42,10.60
2015,10,06,06,43,10.60
2015,10,06,06,44,10.60
2015,10,06,06,45,10.70
2015,10,06,06,46,10.70
2015,10,06,06,47,10.70
2015,10,06,06,48,10.70
2015,10,06,06,49,10.70
2015,10,06,06,50,10.70
2015,10,06,06,51,10.70
2015,10,06,06,52,10.70
2015,10,06,06,53,10.70
2015,10,06,06,54,10.70
2015,10,06,06,55,10.70
2015,10,06,06,56,10.80
2015,10,06,06,57,10.80
2015,10,06,06,58,10.80
2015,10,06,06,59,10.90
2015,10,06,07,00,10.90
2015,10,06,07,01,11.00
2015,10,06,07,02,11.00
2015,10,06,07,03,11.10
2015,10,06,07,04,11.10
2015,10,06,07,05,11.10
2015,10,06,07,06,11.10
2015,10,06,07,07,11.20
2015,10,06,07,08,11.20
2015,10,06,07,09,11.20
2015,10,06,07,10,11.20
2015,10,06,07,11,11.20
2015,10,06,07,12,11.30
2015,10,06,07,13,11.30
2015,10,06,07,14,11.30
2015,10,06,07,15,11.30
2015,10,06,07,16,11.40
2015,10,06,07,17,11.40
2015,10,06,07,18,11.40
2015,10,06,07,19,11.40
2015,10,06,07,20,11.40
2015,10,06,07,21,11.40
2015,10,06,07,22,11.40
2015,10,06,07,23,11.30
2015,10,06,07,24,11.30
2015,10,06,07,25,11.30
2015,10,06,07,26,11.30
2015,10,06,07,27,11.40
2015,10,06,07,28,11.40
2015,10,06,07,29,11.40
2015,10,06,07,30,11.40
2015,10,06,07,31,11.40
2015,10,06,07,32,11.30
2015,10,06,07,33,11.30
2015,10,06,07,34,11.30
2015,10,06,07,35,11.30
2015,10,06,07,36,11.30
2015,10,06,07,37,11.30
2015,10,06,07,38,11.30
2015,10,06,07,39,11.30
2015,10,06,07,40,11.30
2015,10,06,07,41,11.30
2015,10,06,07,42,11.30
2015,10,06,07,43,11.30
2015,10,06,07,44,11.30
2015,10,06,07,45,11.30
2015,10,06,07,46,11.30
2015,10,06,07,47,11.30
2015,10,06,07,48,11.30
2015,10,06,07,49,11.30
2015,10,06,07,50,11.30
2015,10,06,07,51,11.30
2015,10,06,07,52,11.30
2015,10,06,07,53,11.40
2015,10,06,07,54,11.40
2015,10,06,07,55,11.40
2015,10,06,07,56,11.40
2015,10,06,07,57,11.40
2015,10,06,07,58,11.40
2015,10,06,07,59,11.40
2015,10,06,08,00,11.40
2015,10,06,08,01,11.40
2015,10,06,08,02,11.40
2015,10,06,08,03,11.40
2015,10,06,08,04,11.40
2015,10,06,08,05,11.40
2015,10,06,08,06,11.40
2015,10,06,08,07,11.40
2015,10,06,08,08,11.40
2015,10,06,08,09,11.40
2015,10,06,08,10,11.40
2015,10,06,08,11,11.40
2015,10,06,08,12,11.40
2015,10,06,08,13,11.40
2015,10,06,08,14,11.40
2015,10,06,08,15,11.40
2015,10,06,08,16,11.40
2015,10,06,08,17,11.40
2015,10,06,08,18,11.40
2015,10,06,08,19,11.40
2015,10,06,08,20,11.40
2015,10,06,08,21,11.40
2015,10,06,08,22,11.50
2015,10,06,08,23,11.50
2015,10,06,08,24,11.50
2015,10,06,08,25,11.50
2015,10,06,08,26,11.50
2015,10,06,08,27,11.50
2015,10,06,08,28,11.50
2015,10,06,08,29,11.50
2015,10,06,08,30,11.50
2015,10,06,08,31,11.50
2015,10,06,08,32,11.50
2015,10,06,08,33,11.50
2015,10,06,08,34,11.60
2015,10,06,08,35,11.60
2015,10,06,08,36,11.60
2015,10,06,08,37,11.60
2015,10,06,08,38,11.60
2015,10,06,08,39,11.60
2015,10,06,08,40,11.60
2015,10,06,08,41,11.60
2015,10,06,08,42,11.70
2015,10,06,08,43,11.70
2015,10,06,08,44,11.70
2015,10,06,08,45,11.70
2015,10,06,08,46,11.70
2015,10,06,08,47,11.70
2015,10,06,08,48,11.70
2015,10,06,08,49,11.70
2015,10,06,08,50,11.80
2015,10,06,08,51,11.80
2015,10,06,08,52,11.80
2015,10,06,08,53,11.80
2015,10,06,08,54,11.80
2015,10,06,08,55,11.80
2015,10,06,08,56,11.80
2015,10,06,08,57,11.80
2015,10,06,08,58,11.90
2015,10,06,08,59,11.90
2015,10,06,09,00,11.90
2015,10,06,09,01,11.90
2015,10,06,09,02,11.90
2015,10,06,09,03,11.90
2015,10,06,09,04,12.00
2015,10,06,09,05,12.00
2015,10,06,09,06,12.00
2015,10,06,09,07,12.10
2015,10,06,09,08,12.10
2015,10,06,09,09,12.10
2015,10,06,09,10,12.20
2015,10,06,09,11,12.20
2015,10,06,09,12,12.30
2015,10,06,09,13,12.30
2015,10,06,09,14,12.30
2015,10,06,09,15,12.40
2015,10,06,09,16,12.40
2015,10,06,09,17,12.50
2015,10,06,09,18,12.60
2015,10,06,09,19,12.60
2015,10,06,09,20,12.60
2015,10,06,09,21,12.70
2015,10,06,09,22,12.70
2015,10,06,09,23,12.70
2015,10,06,09,24,12.80
2015,10,06,09,25,12.80
2015,10,06,09,26,12.90
2015,10,06,09,27,12.90
2015,10,06,09,28,13.00
2015,10,06,09,29,13.00
2015,10,06,09,30,13.00
2015,10,06,09,31,13.10
2015,10,06,09,32,13.10
2015,10,06,09,33,13.10
2015,10,06,09,34,13.10
2015,10,06,09,35,13.10
2015,10,06,09,36,13.10
2015,10,06,09,37,13.10
2015,10,06,09,38,13.10
2015,10,06,09,39,13.10
2015,10,06,09,40,13.10
2015,10,06,09,41,13.20
2015,10,06,09,42,13.20
2015,10,06,09,43,13.20
2015,10,06,09,44,13.20
2015,10,06,09,45,13.20
2015,10,06,09,46,13.20
2015,10,06,09,47,13.30
2015,10,06,09,48,13.30
2015,10,06,09,49,13.30
2015,10,06,09,50,13.30
2015,10,06,09,51,13.30
2015,10,06,09,52,13.30
2015,10,06,09,53,13.30
2015,10,06,09,54,13.30
2015,10,06,09,55,13.40
2015,10,06,09,56,13.40
2015,10,06,09,57,13.40
2015,10,06,09,58,13.40
2015,10,06,09,59,13.40
2015,10,06,10,00,13.40
2015,10,06,10,01,13.40
2015,10,06,10,02,13.40
2015,10,06,10,03,13.50
2015,10,06,10,04,13.50
2015,10,06,10,05,13.50
2015,10,06,10,06,13.50
2015,10,06,10,07,13.60
2015,10,06,10,08,13.60
2015,10,06,10,09,13.60
2015,10,06,10,10,13.60
2015,10,06,10,11,13.60
2015,10,06,10,12,13.60
2015,10,06,10,13,13.60
2015,10,06,10,14,13.60
2015,10,06,10,15,13.60
2015,10,06,10,16,13.60
2015,10,06,10,17,13.60
2015,10,06,10,18,13.60
2015,10,06,10,19,13.70
2015,10,06,10,20,13.70
2015,10,06,10,21,13.70
2015,10,06,10,22,13.70
2015,10,06,10,23,13.70
2015,10,06,10,24,13.70
2015,10,06,10,25,13.70
2015,10,06,10,26,13.80
2015,10,06,10,27,13.80
2015,10,06,10,28,13.80
2015,10,06,10,29,13.80
2015,10,06,10,30,13.80
2015,10,06,10,31,13.80
2015,10,06,10,32,13.90
2015,10,06,10,33,13.90
2015,10,06,10,34,13.90
2015,10,06,10,35,13.90
2015,10,06,10,36,13.90
2015,10,06,10,37,13.90
2015,10,06,10,38,13.90
2015,10,06,10,39,14.00
2015,10,06,10,40,14.00
2015,10,06,10,41,14.00
2015,10,06,10,42,14.00
2015,10,06,10,43,14.00
2015,10,06,10,44,14.00
2015,10,06,10,45,14.10
2015,10,06,10,46,14.10
2015,10,06,10,47,14.10
2015,10,06,10,48,14.10
2015,10,06,10,49,14.10
2015,10,06,10,50,14.10
2015,10,06,10,51,14.10
2015,10,06,10,52,14.20
2015,10,06,10,53,14.20
2015,10,06,10,54,14.20
2015,10,06,10,55,14.30
2015,10,06,10,56,14.30
2015,10,06,10,57,14.30
2015,10,06,10,58,14.30
2015,10,06,10,59,14.40
2015,10,06,11,00,14.40
2015,10,06,11,01,14.40
2015,10,06,11,02,14.40
2015,10,06,11,03,14.50
2015,10,06,11,04,14.50
2015,10,06,11,05,14.60
2015,10,06,11,06,14.60
2015,10,06,11,07,14.60
2015,10,06,11,08,14.60
2015,10,06,11,09,14.70
2015,10,06,11,10,14.70
2015,10,06,11,11,14.70
2015,10,06,11,12,14.70
2015,10,06,11,13,14.70
2015,10,06,11,14,14.80
2015,10,06,11,15,14.70
2015,10,06,11,16,14.80
2015,10,06,11,17,14.80
2015,10,06,11,18,14.80
2015,10,06,11,19,14.80
2015,10,06,11,20,14.80
2015,10,06,11,21,14.90
2015,10,06,11,22,14.90
2015,10,06,11,23,14.90
2015,10,06,11,24,15.00
2015,10,06,11,25,15.00
2015,10,06,11,26,15.10
2015,10,06,11,27,15.10
2015,10,06,11,28,15.10
2015,10,06,11,29,15.10
2015,10,06,11,30,15.10
2015,10,06,11,31,15.10
2015,10,06,11,32,15.10
2015,10,06,11,33,15.10
2015,10,06,11,34,15.10
2015,10,06,11,35,15.10
2015,10,06,11,36,15.10
2015,10,06,11,37,15.10
2015,10,06,11,38,15.10
2015,10,06,11,39,15.00
2015,10,06,11,40,15.00
2015,10,06,11,41,15.00
2015,10,06,11,42,15.00
2015,10,06,11,43,15.00
2015,10,06,11,44,15.00
2015,10,06,11,45,15.00
2015,10,06,11,46,15.00
2015,10,06,11,47,15.00
2015,10,06,11,48,15.00
2015,10,06,11,49,15.00
2015,10,06,11,50,15.00
2015,10,06,11,51,15.00
2015,10,06,11,52,15.00
2015,10,06,11,53,15.10
2015,10,06,11,54,15.10
2015,10,06,11,55,15.10
2015,10,06,11,56,15.10
2015,10,06,11,57,15.10
2015,10,06,11,58,15.10
2015,10,06,11,59,15.20
2015,10,06,12,00,15.20
2015,10,06,12,01,15.20
2015,10,06,12,02,15.20
2015,10,06,12,03,15.20
2015,10,06,12,04,15.20
2015,10,06,12,05,15.20
2015,10,06,12,06,15.20
2015,10,06,12,07,15.20
2015,10,06,12,08,15.20
2015,10,06,12,09,15.20
2015,10,06,12,10,15.20
2015,10,06,12,11,15.20
2015,10,06,12,12,15.20
2015,10,06,12,13,15.20
2015,10,06,12,14,15.20
2015,10,06,12,15,15.20
2015,10,06,12,16,15.20
2015,10,06,12,17,15.20
2015,10,06,12,18,15.20
2015,10,06,12,19,15.20
2015,10,06,12,20,15.10
2015,10,06,12,21,15.10
2015,10,06,12,22,15.10
2015,10,06,12,23,15.10
2015,10,06,12,24,15.10
2015,10,06,12,25,15.20
2015,10,06,12,26,15.20
2015,10,06,12,27,15.20
2015,10,06,12,28,15.20
2015,10,06,12,29,15.20
2015,10,06,12,30,15.20
2015,10,06,12,31,15.20
2015,10,06,12,32,15.20
2015,10,06,12,33,15.20
2015,10,06,12,34,15.20
2015,10,06,12,35,15.20
2015,10,06,12,36,15.20
2015,10,06,12,37,15.20
2015,10,06,12,38,15.20
2015,10,06,12,39,15.10
2015,10,06,12,40,15.10
2015,10,06,12,41,15.10
2015,10,06,12,42,15.10
2015,10,06,12,43,15.10
2015,10,06,12,44,15.10
2015,10,06,12,45,15.10
2015,10,06,12,46,15.10
2015,10,06,12,47,15.10
2015,10,06,12,48,15.20
2015,10,06,12,49,15.20
2015,10,06,12,50,15.20
2015,10,06,12,51,15.20
2015,10,06,12,52,15.20
2015,10,06,12,53,15.20
2015,10,06,12,54,15.20
2015,10,06,12,55,15.20
2015,10,06,12,56,15.20
2015,10,06,12,57,15.20
2015,10,06,12,58,15.20
2015,10,06,12,59,15.20
2015,10,06,13,00,15.20
2015,10,06,13,01,15.20
2015,10,06,13,02,15.10
2015,10,06,13,03,15.10
2015,10,06,13,04,15.10
2015,10,06,13,05,15.00
2015,10,06,13,06,15.00
2015,10,06,13,07,15.00
2015,10,06,13,08,14.90
2015,10,06,13,09,14.90
2015,10,06,13,10,14.90
2015,10,06,13,11,14.80
2015,10,06,13,12,14.80
2015,10,06,13,13,14.80
2015,10,06,13,14,14.80
2015,10,06,13,15,14.80
2015,10,06,13,16,14.80
2015,10,06,13,17,14.70
2015,10,06,13,18,14.70
2015,10,06,13,19,14.70
2015,10,06,13,20,14.70
2015,10,06,13,21,14.70
2015,10,06,13,22,14.60
2015,10,06,13,23,14.60
2015,10,06,13,24,14.60
2015,10,06,13,25,14.50
2015,10,06,13,26,14.50
2015,10,06,13,27,14.40
2015,10,06,13,28,14.40
2015,10,06,13,29,14.30
2015,10,06,13,30,14.30
2015,10,06,13,31,14.30
2015,10,06,13,32,14.30
2015,10,06,13,33,14.20
2015,10,06,13,34,14.20
2015,10,06,13,35,14.20
2015,10,06,13,36,14.20
2015,10,06,13,37,14.10
2015,10,06,13,38,14.10
2015,10,06,13,39,14.10
2015,10,06,13,40,14.10
2015,10,06,13,41,14.10
2015,10,06,13,42,14.10
2015,10,06,13,43,14.10
2015,10,06,13,44,14.10
2015,10,06,13,45,14.10
2015,10,06,13,46,14.10
2015,10,06,13,47,14.10
2015,10,06,13,48,14.10
2015,10,06,13,49,14.10
2015,10,06,13,50,14.10
2015,10,06,13,51,14.10
2015,10,06,13,52,14.10
2015,10,06,13,53,14.00
2015,10,06,13,54,14.00
2015,10,06,13,55,14.00
2015,10,06,13,56,14.00
2015,10,06,13,57,14.00
2015,10,06,13,58,14.00
2015,10,06,13,59,14.00
2015,10,06,14,00,14.00
2015,10,06,14,01,14.10
2015,10,06,14,02,14.10
2015,10,06,14,03,14.10
2015,10,06,14,04,14.10
2015,10,06,14,05,14.10
2015,10,06,14,06,14.10
2015,10,06,14,07,14.20
2015,10,06,14,08,14.20
2015,10,06,14,09,14.20
2015,10,06,14,10,14.20
2015,10,06,14,11,14.20
2015,10,06,14,12,14.30
2015,10,06,14,13,14.30
2015,10,06,14,14,14.30
2015,10,06,14,15,14.30
2015,10,06,14,16,14.30
2015,10,06,14,17,14.30
2015,10,06,14,18,14.30
2015,10,06,14,19,14.30
2015,10,06,14,20,14.20
2015,10,06,14,21,14.20
2015,10,06,14,22,14.20
2015,10,06,14,23,14.20
2015,10,06,14,24,14.20
2015,10,06,14,25,14.20
2015,10,06,14,26,14.20
2015,10,06,14,27,14.20
2015,10,06,14,28,14.20
2015,10,06,14,29,14.20
2015,10,06,14,30,14.20
2015,10,06,14,31,14.10
2015,10,06,14,32,14.10
2015,10,06,14,33,14.10
2015,10,06,14,34,14.10
2015,10,06,14,35,14.10
2015,10,06,14,36,14.00
2015,10,06,14,37,14.00
2015,10,06,14,38,14.00
2015,10,06,14,39,13.90
2015,10,06,14,40,13.90
2015,10,06,14,41,13.90
2015,10,06,14,42,13.80
2015,10,06,14,43,13.80
2015,10,06,14,44,13.80
2015,10,06,14,45,13.80
2015,10,06,14,46,13.70
2015,10,06,14,47,13.70
2015,10,06,14,48,13.70
2015,10,06,14,49,13.70
2015,10,06,14,50,13.70
2015,10,06,14,51,13.70
2015,10,06,14,52,13.70
2015,10,06,14,53,13.70
2015,10,06,14,54,13.70
2015,10,06,14,55,13.70
2015,10,06,14,56,13.60
2015,10,06,14,57,13.60
2015,10,06,14,58,13.60
2015,10,06,14,59,13.60
2015,10,06,15,00,13.60
2015,10,06,15,01,13.60
2015,10,06,15,02,13.60
2015,10,06,15,03,13.70
2015,10,06,15,04,13.70
2015,10,06,15,05,13.70
2015,10,06,15,06,13.70
2015,10,06,15,07,13.70
2015,10,06,15,08,13.70
2015,10,06,15,09,13.70
2015,10,06,15,10,13.70
2015,10,06,15,11,13.70
2015,10,06,15,12,13.70
2015,10,06,15,13,13.70
2015,10,06,15,14,13.80
2015,10,06,15,15,13.80
2015,10,06,15,16,13.80
2015,10,06,15,17,13.80
2015,10,06,15,18,13.80
2015,10,06,15,19,13.80
2015,10,06,15,20,13.80
2015,10,06,15,21,13.80
2015,10,06,15,22,13.80
2015,10,06,15,23,13.80
2015,10,06,15,24,13.80
2015,10,06,15,25,13.80
2015,10,06,15,26,13.80
2015,10,06,15,27,13.80
2015,10,06,15,28,13.80
2015,10,06,15,29,13.80
2015,10,06,15,30,13.80
2015,10,06,15,31,13.80
2015,10,06,15,32,13.80
2015,10,06,15,33,13.80
2015,10,06,15,34,13.80
2015,10,06,15,35,13.80
2015,10,06,15,36,13.80
2015,10,06,15,37,13.80
2015,10,06,15,38,13.80
2015,10,06,15,39,13.80
2015,10,06,15,40,13.80
2015,10,06,15,41,13.80
2015,10,06,15,42,13.80
2015,10,06,15,43,13.80
2015,10,06,15,44,13.80
2015,10,06,15,45,13.80
2015,10,06,15,46,13.80
2015,10,06,15,47,13.80
2015,10,06,15,48,13.80
2015,10,06,15,49,13.80
2015,10,06,15,50,13.80
2015,10,06,15,51,13.80
2015,10,06,15,52,13.80
2015,10,06,15,53,13.80
2015,10,06,15,54,13.80
2015,10,06,15,55,13.80
2015,10,06,15,56,13.80
2015,10,06,15,57,13.80
2015,10,06,15,58,13.80
2015,10,06,15,59,13.80
2015,10,06,16,00,13.80
2015,10,06,16,01,13.80
2015,10,06,16,02,13.90
2015,10,06,16,03,13.90
2015,10,06,16,04,13.90
2015,10,06,16,05,13.90
2015,10,06,16,06,13.90
2015,10,06,16,07,13.90
2015,10,06,16,08,13.90
2015,10,06,16,09,13.90
2015,10,06,16,10,13.90
2015,10,06,16,11,14.00
2015,10,06,16,12,14.00
2015,10,06,16,13,14.00
2015,10,06,16,14,14.10
2015,10,06,16,15,14.10
2015,10,06,16,16,14.10
2015,10,06,16,17,14.20
2015,10,06,16,18,14.20
2015,10,06,16,19,14.20
2015,10,06,16,20,14.30
2015,10,06,16,21,14.30
2015,10,06,16,22,14.30
2015,10,06,16,23,14.30
2015,10,06,16,24,14.30
2015,10,06,16,25,14.30
2015,10,06,16,26,14.40
2015,10,06,16,27,14.40
2015,10,06,16,28,14.40
2015,10,06,16,29,14.40
2015,10,06,16,30,14.50
2015,10,06,16,31,14.50
2015,10,06,16,32,14.60
2015,10,06,16,33,14.60
2015,10,06,16,34,14.70
2015,10,06,16,35,14.70
2015,10,06,16,36,14.70
2015,10,06,16,37,14.80
2015,10,06,16,38,14.80
2015,10,06,16,39,14.80
2015,10,06,16,40,14.80
2015,10,06,16,41,14.80
2015,10,06,16,42,14.80
2015,10,06,16,43,14.70
2015,10,06,16,44,14.70
2015,10,06,16,45,14.70
2015,10,06,16,46,14.70
2015,10,06,16,47,14.60
2015,10,06,16,48,14.60
2015,10,06,16,49,14.60
2015,10,06,16,50,14.60
2015,10,06,16,51,14.50
2015,10,06,16,52,14.50
2015,10,06,16,53,14.50
2015,10,06,16,54,14.40
2015,10,06,16,55,14.40
2015,10,06,16,56,14.40
2015,10,06,16,57,14.40
2015,10,06,16,58,14.40
2015,10,06,16,59,14.40
2015,10,06,17,00,14.40
2015,10,06,17,01,14.40
2015,10,06,17,02,14.30
2015,10,06,17,03,14.30
2015,10,06,17,04,14.30
2015,10,06,17,05,14.30
2015,10,06,17,06,14.20
2015,10,06,17,07,14.20
2015,10,06,17,08,14.20
2015,10,06,17,09,14.10
2015,10,06,17,10,14.10
2015,10,06,17,11,14.10
2015,10,06,17,12,14.10
2015,10,06,17,13,14.10
2015,10,06,17,14,14.00
2015,10,06,17,15,14.00
2015,10,06,17,16,14.10
2015,10,06,17,17,14.00
2015,10,06,17,18,14.00
2015,10,06,17,19,14.00